EW0420 Weather Reports


time (UTC)temp
C
wind
direction
speed
KPH
gust
KPH
rain 1hr
cm
rain 24hr
cm
rain mn
cm
humidity
%
barometer
mb
20260506201952 14 155 11.3 12.9 0.00 0.23 0.23 99 1011.1
20260506201450 14 168 4.8 9.7 0.00 0.23 0.23 99 1011.2
20260506200946 14 127 6.4 14.5 0.00 0.23 0.23 99 1011.0
20260506200443 14 135 6.4 12.9 0.13 0.23 0.23 99 1011.2
20260506195939 14 161 8.0 11.3 0.00 0.20 0.20 99 1011.0
20260506195436 14 156 6.4 20.9 0.00 0.20 0.20 99 1011.3
20260506194933 14 120 8.0 14.5 0.00 0.20 0.20 99 1011.3
20260506194430 14 150 9.7 11.3 0.00 0.20 0.20 99 1011.6
20260506193927 14 121 8.0 16.1 0.00 0.20 0.20 99 1011.7
20260506193424 14 158 8.0 12.9 0.00 0.20 0.20 99 1011.4
20260506192920 14 155 6.4 16.1 0.00 0.20 0.20 99 1011.5
20260506192417 15 141 8.0 9.7 0.18 0.20 0.20 99 1011.6
20260506191914 15 131 8.0 12.9 0.00 0.18 0.18 99 1011.4
20260506191410 15 133 6.4 9.7 0.13 0.18 0.18 99 1011.6
20260506190908 15 161 6.4 9.7 0.18 0.15 0.15 99 1011.6
20260506190404 15 140 4.8 12.9 0.18 0.15 0.15 99 1011.7
20260506185901 15 135 4.8 8.0 0.13 0.13 0.13 99 1011.7
20260506185358 15 153 6.4 8.0 0.13 0.13 0.13 99 1011.5
20260506184855 15 131 6.4 11.3 0.18 0.10 0.10 98 1011.7
20260506184352 15 116 9.7 14.5 0.18 0.10 0.10 97 1011.7
20260506183849 15 147 8.0 12.9 0.18 0.08 0.08 96 1011.6
20260506183344 15 134 4.8 11.3 0.13 0.05 0.05 96 1011.9
20260506182842 15 148 4.8 14.5 0.13 0.05 0.05 94 1011.9
20260506182339 16 154 8.0 11.3 0.18 0.03 0.03 93 1012.0
20260506181836 16 187 9.7 11.3 0.18 0.03 0.03 91 1012.0
20260506181335 16 168 9.7 14.5 0.00 0.00 0.00 89 1012.2
20260506180831 17 140 6.4 11.3 0.00 0.00 0.00 88 1012.3
20260506180327 17 121 8.0 12.9 0.00 0.00 0.00 86 1012.4
20260506175823 17 136 8.0 17.7 0.00 0.00 0.00 84 1012.4
20260506175321 17 164 9.7 17.7 0.00 0.00 0.00 82 1012.6
20260506174818 17 147 11.3 20.9 0.00 0.00 0.00 81 1012.3
20260506174315 18 128 8.0 20.9 0.00 0.00 0.00 80 1012.5
20260506173812 18 139 11.3 17.7 0.00 0.00 0.00 78 1012.5
20260506173309 19 173 20.9 25.7 0.00 0.00 0.00 76 1012.8
20260506172806 20 119 9.7 11.3 0.00 0.00 0.00 73 1012.5
20260506172306 20 179 12.9 22.5 0.00 0.00 0.00 72 1012.5
20260506171800 20 126 9.7 14.5 0.00 0.00 0.00 70 1012.5
20260506171257 20 119 11.3 22.5 0.00 0.00 0.00 69 1012.4
20260506170755 20 131 8.0 17.7 0.00 0.00 0.00 69 1012.4
20260506170251 20 124 14.5 20.9 0.00 0.00 0.00 69 1012.3
20260506165750 20 127 11.3 24.1 0.00 0.00 0.00 69 1012.2
20260506165247 21 155 17.7 24.1 0.00 0.00 0.00 67 1012.2
20260506164744 21 119 17.7 24.1 0.00 0.00 0.00 66 1012.3
20260506164240 21 134 14.5 22.5 0.00 0.00 0.00 65 1012.3
20260506163737 21 189 17.7 24.1 0.00 0.00 0.00 65 1012.3
20260506163232 21 174 14.5 25.7 0.00 0.00 0.00 66 1012.3
20260506162728 21 158 22.5 35.4 0.00 0.00 0.00 65 1012.5
20260506162226 20 113 6.4 20.9 0.00 0.00 0.00 68 1012.5
20260506161723 20 176 16.1 25.7 0.00 0.00 0.00 68 1013.0
20260506161220 21 157 8.0 12.9 0.00 0.00 0.00 68 1012.8
20260506160718 21 153 9.7 14.5 0.00 0.00 0.00 68 1013.0
20260506160214 21 123 8.0 17.7 0.00 0.00 0.00 68 1012.9
20260506155713 21 179 17.7 20.9 0.00 0.00 0.00 67 1013.1
20260506155210 21 184 16.1 32.2 0.00 0.00 0.00 67 1013.1
20260506153312 21 128 19.3 29.0 0.00 0.00 0.00 67 1013.1
20260506152808 21 114 17.7 27.4 0.00 0.00 0.00 67 1013.1
20260506152306 21 103 11.3 20.9 0.00 0.00 0.00 68 1013.5
20260506151805 20 139 27.4 35.4 0.00 0.00 0.00 67 1013.3
20260506151301 21 148 9.7 20.9 0.00 0.00 0.00 68 1013.4
20260506150758 20 157 8.0 16.1 0.00 0.00 0.00 69 1013.7
20260506150303 20 173 6.4 29.0 0.00 0.00 0.00 69 1013.6
20260506145751 20 185 17.7 33.8 0.00 0.00 0.00 69 1013.7
20260506145248 20 133 16.1 24.1 0.00 0.00 0.00 70 1013.6
20260506144746 20 153 6.4 12.9 0.00 0.00 0.00 72 1013.7
20260506144242 20 167 16.1 17.7 0.00 0.00 0.00 73 1013.5
20260506143740 19 126 11.3 20.9 0.00 0.00 0.00 73 1013.6
20260506143237 19 153 11.3 14.5 0.00 0.00 0.00 74 1013.6
20260506142736 20 125 8.0 20.9 0.00 0.00 0.00 73 1013.8
20260506142233 19 84 19.3 25.7 0.00 0.00 0.00 74 1013.8
20260506141731 19 145 12.9 22.5 0.00 0.00 0.00 74 1013.9
20260506141229 19 172 12.9 24.1 0.00 0.00 0.00 75 1013.6
20260506140727 19 133 11.3 27.4 0.00 0.00 0.00 75 1013.8
20260506140223 19 182 4.8 22.5 0.00 0.00 0.00 76 1013.6
20260506135720 19 143 12.9 24.1 0.00 0.00 0.00 77 1013.7
20260506135216 18 117 12.9 27.4 0.00 0.00 0.00 78 1013.5
20260506134714 18 141 16.1 29.0 0.00 0.00 0.00 78 1013.8
20260506134209 18 149 8.0 17.7 0.00 0.00 0.00 79 1013.7
20260506133707 18 157 9.7 35.4 0.00 0.00 0.00 79 1013.8
20260506133203 18 96 11.3 25.7 0.00 0.00 0.00 80 1013.8
20260506132701 18 177 14.5 20.9 0.00 0.00 0.00 80 1013.8
20260506132157 17 161 8.0 17.7 0.00 0.00 0.00 82 1013.8
20260506131655 17 150 24.1 38.6 0.00 0.00 0.00 82 1014.1
20260506131151 17 142 19.3 33.8 0.00 0.00 0.00 83 1014.1
20260506130648 17 163 11.3 20.9 0.00 0.00 0.00 83 1014.6
20260506130145 17 143 11.3 17.7 0.00 0.00 0.00 84 1014.5
20260506125643 16 147 12.9 17.7 0.00 0.00 0.00 85 1014.3
20260506125141 16 166 9.7 12.9 0.00 0.00 0.00 86 1014.2
20260506124639 16 125 6.4 12.9 0.00 0.00 0.00 87 1014.3
20260506124136 16 122 8.0 20.9 0.00 0.00 0.00 87 1014.4
20260506123633 16 123 4.8 12.9 0.00 0.00 0.00 86 1014.1
20260506123132 16 132 4.8 16.1 0.00 0.00 0.00 86 1014.2
20260506122628 16 125 6.4 16.1 0.00 0.00 0.00 88 1014.3
20260506122126 16 141 9.7 16.1 0.00 0.00 0.00 87 1014.5
20260506121624 15 124 8.0 14.5 0.00 0.00 0.00 89 1014.3
20260506121120 15 166 17.7 20.9 0.00 0.00 0.00 89 1014.7
20260506120618 15 137 11.3 24.1 0.00 0.00 0.00 90 1014.5
20260506120115 15 138 6.4 16.1 0.00 0.00 0.00 90 1014.3
20260506115614 15 155 4.8 8.0 0.00 0.00 0.00 90 1014.6
20260506115112 15 112 1.6 9.7 0.00 0.00 0.00 91 1014.4
20260506114608 15 112 4.8 8.0 0.00 0.00 0.00 91 1014.3
20260506114107 15 106 0.0 11.3 0.00 0.00 0.00 92 1014.7
20260506113604 14 218 6.4 8.0 0.00 0.00 0.00 92 1014.6
20260506113101 14 134 1.6 8.0 0.00 0.00 0.00 93 1014.7
20260506112557 13 165 4.8 8.0 0.00 0.00 0.00 94 1014.7
20260506112055 13 139 3.2 8.0 0.00 0.00 0.00 94 1014.8
20260506111553 13 132 3.2 8.0 0.00 0.00 0.00 93 1014.8
20260506111050 14 123 4.8 8.0 0.00 0.00 0.00 93 1015.0
20260506110548 14 132 6.4 11.3 0.00 0.00 0.00 93 1015.1
20260506110045 13 141 6.4 11.3 0.00 0.00 0.00 94 1014.9
20260506105541 13 135 3.2 9.7 0.00 0.00 0.00 94 1014.8
20260506105038 13 148 4.8 11.3 0.00 0.00 0.00 94 1014.8
20260506104536 13 151 4.8 9.7 0.00 0.00 0.00 94 1014.8
20260506104034 13 128 8.0 11.3 0.00 0.00 0.00 94 1014.8
20260506103531 13 145 3.2 9.7 0.00 0.00 0.00 95 1014.6
20260506103027 13 132 4.8 8.0 0.00 0.00 0.00 95 1014.4
20260506102526 13 130 6.4 12.9 0.00 0.00 0.00 95 1014.7
20260506102023 13 130 3.2 4.8 0.00 0.00 0.00 95 1014.6
20260506101519 13 144 4.8 8.0 0.00 0.00 0.00 95 1014.8
20260506101016 13 97 1.6 4.8 0.00 0.00 0.00 95 1014.6
20260506100515 13 156 4.8 11.3 0.00 0.00 0.00 94 1014.6
20260506100013 13 163 4.8 9.7 0.00 0.00 0.00 94 1014.4
20260506095511 13 134 4.8 9.7 0.00 0.00 0.00 94 1014.6
20260506095007 13 141 4.8 8.0 0.00 0.00 0.00 94 1014.6
20260506094505 13 168 6.4 11.3 0.00 0.00 0.00 94 1014.5
20260506094002 13 156 6.4 11.3 0.00 0.00 0.00 93 1014.5
20260506093501 13 157 9.7 14.5 0.00 0.00 0.00 94 1014.5
20260506092958 13 153 4.8 12.9 0.00 0.00 0.00 94 1014.4
20260506092455 13 148 4.8 8.0 0.00 0.00 0.00 93 1014.4
20260506091952 13 140 6.4 9.7 0.00 0.00 0.00 93 1014.4
20260506091451 13 149 4.8 11.3 0.00 0.00 0.00 93 1014.1
20260506090947 13 180 8.0 11.3 0.00 0.00 0.00 93 1014.4
20260506090445 13 140 6.4 11.3 0.00 0.00 0.00 93 1014.6
20260506085941 13 132 4.8 9.7 0.00 0.00 0.00 92 1014.2
20260506085438 13 152 9.7 14.5 0.00 0.00 0.00 93 1014.5
20260506084934 13 178 6.4 8.0 0.00 0.00 0.00 93 1014.6
20260506084431 13 120 4.8 8.0 0.00 0.00 0.00 92 1014.5
20260506083927 13 166 4.8 9.7 0.00 0.00 0.00 92 1014.8
20260506083425 13 151 3.2 11.3 0.00 0.00 0.00 92 1014.6
20260506082922 13 149 6.4 9.7 0.00 0.00 0.00 92 1014.7
20260506082419 13 142 3.2 9.7 0.00 0.00 0.00 92 1014.6
20260506081915 13 133 4.8 12.9 0.00 0.00 0.00 91 1014.8
20260506081414 13 130 4.8 8.0 0.00 0.00 0.00 91 1014.7
20260506080910 13 142 4.8 16.1 0.00 0.00 0.00 91 1014.6
20260506080407 13 147 6.4 12.9 0.00 0.00 0.00 90 1014.7
20260506073351 14 144 3.2 12.9 0.00 0.00 0.00 88 1014.9
20260506072847 14 116 8.0 12.9 0.00 0.00 0.00 88 1014.8
20260506072345 15 165 6.4 11.3 0.00 0.00 0.00 88 1014.7
20260506071843 15 113 6.4 12.9 0.00 0.00 0.00 87 1014.6
20260506071341 15 151 6.4 12.9 0.00 0.00 0.00 87 1014.5
20260506070837 15 148 4.8 14.5 0.00 0.00 0.00 87 1014.4
20260506070334 15 166 6.4 11.3 0.00 0.00 0.00 87 1014.4
20260506062312 15 120 9.7 11.3 0.00 0.00 0.00 84 1014.3
20260506061808 15 128 8.0 14.5 0.00 0.00 0.00 84 1014.3
20260506061304 15 168 6.4 12.9 0.00 0.00 0.00 84 1014.4
20260506060803 15 168 9.7 11.3 0.00 0.00 0.00 83 1014.5
20260506060300 15 135 4.8 16.1 0.00 0.00 0.00 83 1014.3
20260506051232 16 107 8.0 14.5 0.00 0.00 0.00 79 1014.5
20260506050730 16 170 6.4 12.9 0.00 0.00 0.00 79 1014.6
20260506050227 16 144 4.8 12.9 0.00 0.00 0.00 79 1014.7
20260506044718 16 159 8.0 11.3 0.00 0.00 0.00 78 1014.8
20260506044215 16 145 8.0 11.3 0.00 0.00 0.00 78 1015.1
20260506043712 16 139 8.0 11.3 0.00 0.00 0.00 77 1014.8
20260506043210 16 165 9.7 14.5 0.00 0.00 0.00 77 1014.5
20260506042709 16 145 8.0 11.3 0.00 0.00 0.00 77 1014.8
20260506042207 16 176 8.0 11.3 0.00 0.00 0.00 77 1015.1
20260506041705 16 153 11.3 12.9 0.00 0.00 0.00 76 1014.8
20260506041201 16 168 4.8 11.3 0.00 0.00 0.00 76 1015.0
20260506040659 16 147 4.8 11.3 0.00 0.00 0.00 76 1014.9
20260506040155 16 156 6.4 9.7 0.00 0.00 0.00 77 1015.0
20260506035652 16 108 4.8 16.1 0.00 0.00 0.00 76 1014.8
20260506035149 16 147 6.4 9.7 0.00 0.00 0.00 76 1014.8
20260506034646 16 131 4.8 9.7 0.00 0.00 0.00 77 1014.9
20260506034143 16 173 8.0 9.7 0.00 0.00 0.00 77 1015.0
20260506033640 16 147 8.0 9.7 0.00 0.00 0.00 77 1015.0
20260506033137 16 143 3.2 9.7 0.00 0.00 0.00 77 1014.7
20260506032634 16 127 12.9 17.7 0.00 0.00 0.00 77 1014.8
20260506032131 16 142 4.8 8.0 0.00 0.00 0.00 77 1014.6
20260506031628 15 142 4.8 11.3 0.00 0.00 0.00 77 1014.7
20260506031125 15 143 4.8 9.7 0.00 0.00 0.00 78 1014.6
20260506030624 15 140 4.8 14.5 0.00 0.00 0.00 77 1014.6
20260506030121 15 152 6.4 8.0 0.00 0.00 0.00 78 1014.7
20260506025617 15 135 6.4 12.9 0.00 0.00 0.00 77 1014.8
20260506025113 15 139 3.2 8.0 0.00 0.00 0.00 78 1014.9
20260506024611 15 141 3.2 9.7 0.00 0.00 0.00 78 1014.7
20260506024107 15 139 4.8 8.0 0.00 0.00 0.00 78 1014.7
20260506023603 15 78 8.0 12.9 0.00 0.00 0.00 78 1014.8
20260506023101 15 139 6.4 9.7 0.00 0.00 0.00 78 1014.7
20260506022558 15 126 4.8 9.7 0.00 0.00 0.00 77 1014.7
20260506022055 15 142 8.0 9.7 0.00 0.00 0.00 77 1014.6
20260506021553 15 120 4.8 9.7 0.00 0.00 0.00 77 1014.8
20260506021050 15 87 8.0 12.9 0.00 0.00 0.00 77 1014.9
20260506020547 15 133 9.7 12.9 0.00 0.00 0.00 76 1014.9
20260506020044 15 157 4.8 9.7 0.00 0.00 0.00 77 1014.8
20260506015542 15 112 4.8 11.3 0.00 0.00 0.00 76 1014.8
20260506015039 15 131 8.0 12.9 0.00 0.00 0.00 75 1014.8
20260506014536 16 120 4.8 8.0 0.00 0.00 0.00 75 1014.5
20260506014032 16 124 3.2 12.9 0.00 0.00 0.00 75 1014.7
20260506013531 16 157 6.4 11.3 0.00 0.00 0.00 74 1014.6
20260506013026 16 116 8.0 11.3 0.00 0.00 0.00 74 1014.4
20260506012523 16 134 4.8 8.0 0.00 0.00 0.00 74 1014.2
20260506012020 16 125 6.4 9.7 0.00 0.00 0.00 74 1014.4
20260506011517 16 141 4.8 11.3 0.00 0.00 0.00 73 1014.2
20260506011013 16 155 6.4 11.3 0.00 0.00 0.00 73 1014.3
20260506010508 16 125 4.8 9.7 0.00 0.00 0.00 73 1014.3
20260506010004 16 151 4.8 11.3 0.00 0.00 0.00 73 1013.9
20260506005501 16 138 6.4 8.0 0.00 0.00 0.00 73 1014.0
20260506004956 16 163 6.4 14.5 0.00 0.00 0.00 72 1013.9
20260506004454 16 125 6.4 9.7 0.00 0.00 0.00 72 1013.9
20260506003950 17 134 6.4 14.5 0.00 0.00 0.00 71 1013.7
20260506003446 17 155 6.4 11.3 0.00 0.00 0.00 72 1013.9
20260506002943 17 172 4.8 12.9 0.00 0.00 0.00 71 1014.0
20260506002439 17 125 3.2 11.3 0.00 0.00 0.00 71 1013.7
20260506001934 17 117 6.4 9.7 0.00 0.00 0.00 71 1013.7
20260506001432 17 160 4.8 8.0 0.00 0.00 0.00 70 1013.5
20260506000929 17 141 6.4 9.7 0.00 0.00 0.00 69 1013.4
20260506000427 18 88 6.4 14.5 0.00 0.00 0.00 68 1013.3
20260505235923 18 128 8.0 14.5 0.00 0.00 0.00 67 1013.1
20260505235421 18 179 4.8 12.9 0.00 0.00 0.00 67 1013.1
20260505234918 18 157 8.0 16.1 0.00 0.00 0.00 66 1013.1
20260505234415 18 172 6.4 9.7 0.00 0.00 0.00 65 1013.1
20260505233912 19 147 9.7 14.5 0.00 0.00 0.00 64 1012.8
20260505233410 19 143 8.0 17.7 0.00 0.00 0.00 63 1012.6
20260505232907 20 177 8.0 12.9 0.00 0.00 0.00 64 1012.5
20260505232405 20 154 9.7 20.9 0.00 0.00 0.00 62 1012.7
20260505231901 20 150 9.7 16.1 0.00 0.00 0.00 62 1012.3
20260505231359 20 186 8.0 12.9 0.00 0.00 0.00 61 1012.6
20260505230857 20 161 9.7 14.5 0.00 0.00 0.00 62 1012.6
20260505230354 20 144 4.8 9.7 0.00 0.00 0.00 62 1012.3
20260505225851 20 133 4.8 12.9 0.00 0.00 0.00 61 1012.3
20260505225348 20 121 8.0 11.3 0.00 0.00 0.00 60 1012.4
20260505224843 20 124 11.3 12.9 0.00 0.00 0.00 59 1012.2
20260505224341 21 135 4.8 14.5 0.00 0.00 0.00 59 1012.1
20260505223838 21 147 8.0 12.9 0.00 0.00 0.00 58 1012.1
20260505223335 21 117 8.0 20.9 0.00 0.00 0.00 57 1011.7
20260505222830 21 131 11.3 17.7 0.00 0.00 0.00 57 1011.8
20260505222327 21 146 8.0 20.9 0.00 0.00 0.00 58 1011.6
20260505221824 21 138 6.4 14.5 0.00 0.00 0.00 57 1011.5
20260505221321 21 166 8.0 14.5 0.00 0.00 0.00 57 1011.5
20260505220818 22 169 12.9 20.9 0.00 0.00 0.00 56 1011.5
20260505220315 22 137 4.8 17.7 0.00 0.00 0.00 57 1011.7
20260505215813 22 119 8.0 14.5 0.00 0.00 0.00 57 1011.8
20260505215310 22 106 8.0 11.3 0.00 0.00 0.00 56 1011.8
20260505214808 22 152 8.0 14.5 0.00 0.00 0.00 57 1011.6
20260505214306 22 116 6.4 9.7 0.00 0.00 0.00 57 1011.4
20260505213802 22 111 6.4 12.9 0.00 0.00 0.00 58 1011.8
20260505213300 22 144 8.0 20.9 0.00 0.00 0.00 57 1011.7
20260505212755 22 144 8.0 14.5 0.00 0.00 0.00 56 1011.7
20260505212253 22 94 11.3 14.5 0.00 0.00 0.00 55 1011.6
20260505211750 23 153 9.7 20.9 0.00 0.00 0.00 55 1011.4
20260505211248 23 166 9.7 20.9 0.00 0.00 0.00 55 1011.3
20260505210743 23 179 8.0 20.9 0.00 0.00 0.00 55 1011.2
20260505210241 23 115 8.0 14.5 0.00 0.00 0.00 54 1011.2
20260505205737 23 114 8.0 14.5 0.00 0.00 0.00 54 1011.2
20260505205236 23 106 8.0 16.1 0.00 0.00 0.00 54 1011.2
20260505204732 23 134 8.0 20.9 0.00 0.00 0.00 53 1011.4
20260505204230 23 90 11.3 22.5 0.00 0.00 0.00 52 1011.5
20260505203726 23 126 8.0 25.7 0.00 0.00 0.00 53 1011.2
20260505203224 24 190 12.9 17.7 0.00 0.00 0.00 51 1011.1
20260505202719 25 178 12.9 20.9 0.00 0.00 0.00 51 1011.4